"2010-02-21 00:00:00",1699479,2.888,114.7,6.866,1.06,-4.228,97.86025,-6.15,-4.906,91,0,109.2,13.72,-5.42,76.7
"2010-02-21 00:00:30",1699480,3.572,116.1,8.63,1.18,-1.758,97.85742,-6.157,-4.827,91.1,0,109.2,13.73,-5.43,78.1
"2010-02-21 00:01:00",1699481,4.334,117.8,6.544,0.66,-0.303,97.85714,-6.158,-4.73,91.2,0,109.2,13.73,-5.43,79.8
"2010-02-21 00:01:30",1699482,3.886,113.9,4.968,1.213,-1.268,97.85714,-6.158,-4.781,91.2,0,109.2,13.73,-5.43,75.9
"2010-02-21 00:02:00",1699483,3.735,108.7,5.439,1.114,-2.068,97.85714,-6.158,-4.773,91.2,0,109.2,13.73,-5.43,70.7
"2010-02-21 00:02:30",1699484,2.513,97.8,8.27,0.842,-4.11,97.85714,-6.158,-4.891,91.2,0,109.2,13.73,-5.43,59.8
"2010-02-21 00:03:00",1699485,3.649,109.1,5.084,1.21,-1.675,97.85714,-6.158,-4.812,91.3,0,109.2,13.73,-5.43,71.1
"2010-02-21 00:03:30",1699486,3.847,112.3,5.688,1.031,-1.216,97.85714,-6.158,-4.759,91.4,0,109.2,13.73,-5.43,74.3
"2010-02-21 00:04:00",1699487,4.601,111.9,5.059,0.537,-0.022,97.85657,-6.159,-4.737,91.4,0,109.2,13.73,-5.43,73.9
"2010-02-21 00:04:30",1699488,4.057,109.8,6.999,1.058,-1.268,97.85033,-6.175,-4.816,91.4,0,109.2,13.73,-5.45,71.8
"2010-02-21 00:05:00",1699489,3.846,106.3,6.952,1.066,-1.652,97.84263,-6.195,-4.809,91.4,0,109.2,13.73,-5.46,68.3
"2010-02-21 00:05:30",1699490,2.747,105.1,6.695,1.179,-3.808,97.84203,-6.196,-4.938,91.3,0,109.2,13.73,-5.47,67.1
"2010-02-21 00:06:00",1699491,3.538,113.8,6.549,1.115,-1.858,97.84336,-6.193,-4.844,91.5,0,109.2,13.73,-5.46,75.8
"2010-02-21 00:06:30",1699492,2.51,111.3,4.132,0.945,-3.481,97.84048,-6.2,-4.887,91.4,0,109.2,13.73,-5.47,73.3
"2010-02-21 00:07:00",1699493,3.329,114.8,6.026,1.145,-1.555,97.84155,-6.198,-4.806,91.6,0,109.2,13.73,-5.47,76.8
"2010-02-21 00:07:30",1699494,3.127,117.3,6.015,1.217,-2.33,97.84121,-6.198,-4.822,91.6,0,109.2,13.73,-5.47,79.3
"2010-02-21 00:08:00",1699495,3.796,122.4,5.714,0.744,-0.753,97.84061,-6.2,-4.801,91.6,0,109.2,13.73,-5.47,84.4
"2010-02-21 00:08:30",1699496,3.069,118.2,5.488,1.181,-2.524,97.84089,-6.199,-4.827,91.7,0,109.2,13.73,-5.47,80.2
"2010-02-21 00:09:00",1699497,3.383,118.9,5.78,1.103,-1.563,97.84116,-6.199,-4.822,91.7,0,109.2,13.73,-5.47,80.9
"2010-02-21 00:09:30",1699498,2.461,112.5,7.306,1.048,-3.085,97.84059,-6.2,-4.896,91.7,0,109.2,13.73,-5.47,74.5
"2010-02-21 00:10:00",1699499,3.113,121,8.2,1.177,-1.892,97.84087,-6.199,-4.831,91.7,0,109.2,13.73,-5.47,83.0
"2010-02-21 00:10:30",1699500,3.369,122.3,5.719,1.07,-1.595,97.84087,-6.199,-4.835,91.7,0,109.2,13.73,-5.47,84.3
"2010-02-21 00:11:00",1699501,2.812,117.6,5.382,1.239,-2.955,97.84364,-6.192,-4.879,91.7,0,109.2,13.73,-5.46,79.6
"2010-02-21 00:11:30",1699502,4.012,121.5,4.18,0.877,-1.394,97.84586,-6.187,-4.911,91.7,0,109.2,13.73,-5.46,83.5
"2010-02-21 00:12:00",1699503,3.611,123.2,7.781,1.084,-1.577,97.84642,-6.185,-4.863,91.8,0,109.2,13.73,-5.45,85.2
"2010-02-21 00:12:30",1699504,3.633,127.8,5.53,1.019,-1.508,97.84726,-6.183,-4.961,91.8,0,109.2,13.73,-5.45,89.8
"2010-02-21 00:13:00",1699505,3.486,120.1,6.138,1.126,-1.652,97.84781,-6.182,-4.844,91.9,0,109.2,13.74,-5.45,82.1
"2010-02-21 00:13:30",1699506,3.184,118.7,5.457,1.193,-2.178,97.8492,-6.178,-4.877,91.9,0,109.2,13.74,-5.45,80.7
"2010-02-21 00:14:00",1699507,2.902,118.1,5.998,1.157,-2.879,97.8492,-6.178,-4.892,91.9,0,109.2,13.74,-5.45,80.1
"2010-02-21 00:14:30",1699508,3.208,121.4,5.653,1.149,-2.096,97.84975,-6.177,-4.885,91.9,0,109.2,13.74,-5.45,83.4
"2010-02-21 00:15:00",1699509,2.739,119.5,7.026,1.137,-2.529,97.84864,-6.18,-4.93,91.9,0,109.2,13.74,-5.45,81.5
"2010-02-21 00:15:30",1699510,2.696,126.1,8.07,1.104,-1.699,97.84837,-6.18,-4.844,92,0,109.2,13.74,-5.45,88.1
"2010-02-21 00:16:00",1699511,2.741,128.1,7.401,1.145,-1.73,97.8492,-6.178,-4.818,92.1,0,109.2,13.74,-5.45,90.1
"2010-02-21 00:16:30",1699512,1.993,113.8,8.63,1.067,-4.035,97.84892,-6.179,-5.047,91.9,0,109.2,13.74,-5.45,75.8
"2010-02-21 00:17:00",1699513,2.831,111.5,6.202,1.189,-2.181,97.84947,-6.177,-4.839,92.1,0,109.2,13.74,-5.45,73.5
"2010-02-21 00:17:30",1699514,3.382,111.7,6.464,1.026,-1.729,97.84864,-6.18,-4.884,92.1,0,109.2,13.74,-5.45,73.7
"2010-02-21 00:18:00",1699515,3.566,110.8,5.22,0.984,-1.069,97.84947,-6.177,-4.858,92.1,0,109.2,13.74,-5.45,72.8
"2010-02-21 00:18:30",1699516,2.735,102.3,5.305,1.143,-2.629,97.85142,-6.172,-4.8,92.2,0,109.2,13.74,-5.44,64.3
"2010-02-21 00:19:00",1699517,3.455,98.6,5.648,1.034,-1.258,97.85364,-6.167,-4.858,92.2,0,109.2,13.74,-5.44,60.6
"2010-02-21 00:19:30",1699518,2.598,93.9,6.039,1.099,-3.659,97.8539,-6.166,-5.001,92.1,0,109.2,13.74,-5.44,55.9
"2010-02-21 00:20:00",1699519,3.556,96.1,5.508,1.032,-1.812,97.85391,-6.166,-4.906,92.1,0,109.2,13.74,-5.44,58.1
"2010-02-21 00:20:30",1699520,3.66,93.4,5.452,1.003,-1.374,97.85585,-6.161,-4.908,92.2,0,109.2,13.74,-5.43,55.4
"2010-02-21 00:21:00",1699521,3.225,94.5,5.868,1.06,-1.087,97.85133,-6.173,-4.846,92.3,0,109.2,13.74,-5.44,56.5
"2010-02-21 00:21:30",1699522,2.987,95.8,6.26,1.16,-1.729,97.84876,-6.179,-4.916,92.2,0,109.2,13.74,-5.45,57.8
"2010-02-21 00:22:00",1699523,3.409,92.2,6.48,0.966,-1.615,97.84705,-6.184,-4.922,92.2,0,109.2,13.74,-5.45,54.2
"2010-02-21 00:22:30",1699524,2.51,81.4,4.904,1.117,-4.092,97.84309,-6.194,-4.978,92.2,0,109.2,13.74,-5.46,43.4
"2010-02-21 00:23:00",1699525,3.268,86.5,5.734,1.173,-2.068,97.84054,-6.2,-4.846,92.3,0,109.2,13.74,-5.47,48.5
"2010-02-21 00:23:30",1699526,3.566,86.4,5.319,1.079,-1.37,97.83826,-6.206,-4.854,92.3,0,109.2,13.74,-5.48,48.4
"2010-02-21 00:24:00",1699527,3.465,86.6,6.435,1.104,-1.204,97.83741,-6.208,-4.854,92.3,0,109.2,13.74,-5.48,48.6
"2010-02-21 00:24:30",1699528,3.503,85.5,5.398,1.066,-1.488,97.83883,-6.205,-4.816,92.4,0,109.2,13.74,-5.47,47.5
"2010-02-21 00:25:00",1699529,3.674,84.3,6.209,1.076,-1.749,97.83883,-6.205,-4.874,92.3,0,109.2,13.74,-5.47,46.3
"2010-02-21 00:25:30",1699530,3.673,82.7,5.359,1.074,-2.535,97.83628,-6.211,-4.967,92.3,0,109.2,13.74,-5.48,44.7
"2010-02-21 00:26:00",1699531,3.336,82.9,5.751,1.169,-2.432,97.83202,-6.222,-4.874,92.4,0,109.2,13.74,-5.49,44.9
"2010-02-21 00:26:30",1699532,3.651,82.5,5.434,0.962,-1.255,97.83089,-6.225,-4.857,92.4,0,109.2,13.74,-5.49,44.5
"2010-02-21 00:27:00",1699533,2.925,80.7,5.931,1.173,-2.292,97.82862,-6.231,-4.919,92.4,0,109.2,13.74,-5.50,42.7
"2010-02-21 00:27:30",1699534,2.652,80.8,6.155,1.123,-2.862,97.82352,-6.243,-4.887,92.4,0,109.2,13.74,-5.51,42.8
"2010-02-21 00:28:00",1699535,2.406,79.56,5.434,1.04,-4.071,97.82239,-6.246,-5.051,92.3,0,109.2,13.74,-5.52,41.6
"2010-02-21 00:28:30",1699536,3.217,84.6,6.14,1.153,-2.127,97.82239,-6.246,-4.853,92.5,0,109.2,13.74,-5.52,46.6
"2010-02-21 00:29:00",1699537,3.195,87.4,4.679,1.065,-1.262,97.82239,-6.246,-4.906,92.4,0,109.2,13.75,-5.52,49.4
"2010-02-21 00:29:30",1699538,3.4,86,5.859,0.954,-0.785,97.82239,-6.246,-4.839,92.5,0,109.2,13.75,-5.52,48.0
"2010-02-21 00:30:00",1699539,3.069,86.6,5.367,1.121,-0.847,97.82266,-6.246,-4.893,92.5,0,109.2,13.75,-5.52,48.6
"2010-02-21 00:30:30",1699540,2.501,80.3,5.852,1.182,-3.372,97.82266,-6.246,-5.081,92.3,0,109.2,13.75,-5.52,42.3
"2010-02-21 00:31:00",1699541,2.008,79.98,5.626,0.978,-3.841,97.82239,-6.246,-4.906,92.5,0,109.2,13.75,-5.52,42.0
"2010-02-21 00:31:30",1699542,3.344,89.6,5.447,1.067,-1.545,97.82377,-6.243,-4.912,92.5,0,109.2,13.75,-5.51,51.6
"2010-02-21 00:32:00",1699543,2.779,88.7,6.176,1.2,-1.964,97.82322,-6.244,-4.899,92.5,0,109.2,13.75,-5.51,50.7
"2010-02-21 00:32:30",1699544,3.151,89.9,4.91,1.094,-0.749,97.82377,-6.243,-4.836,92.6,0,109.2,13.75,-5.51,51.9
"2010-02-21 00:33:00",1699545,2.757,85.9,5.873,1.184,-2.449,97.82405,-6.242,-5.014,92.4,0,109.2,13.75,-5.51,47.9
"2010-02-21 00:33:30",1699546,1.506,74.15,2.267,0.071,-5.231,97.82235,-6.246,-5.044,92.4,0,109.2,13.79,-5.52,36.2
"2010-02-21 00:34:00",1699547,3.042,80.5,5.779,1.142,-2.847,97.81924,-6.254,-4.991,92.5,0,109.2,13.75,-5.52,42.5
"2010-02-21 00:34:30",1699548,3.104,81.1,5.79,1.128,-1.985,97.81298,-6.27,-4.879,92.6,0,109.2,13.75,-5.54,43.1
"2010-02-21 00:35:00",1699549,3.503,82.2,4.583,0.903,-1.033,97.80846,-6.282,-4.856,92.6,0,109.2,13.75,-5.55,44.2
"2010-02-21 00:35:30",1699550,3.357,80.5,5.721,0.955,-1.316,97.80727,-6.285,-4.883,92.6,0,109.2,13.76,-5.55,42.5
"2010-02-21 00:36:00",1699551,2.695,77.68,5.01,1.154,-3.301,97.80502,-6.291,-5.015,92.5,0,109.2,13.76,-5.56,39.7
"2010-02-21 00:36:30",1699552,2.751,79.79,5.818,1.186,-3.868,97.80551,-6.289,-5.135,92.4,0,109.2,13.76,-5.56,41.8
"2010-02-21 00:37:00",1699553,3.118,81.4,6.333,1.24,-3.144,97.80488,-6.291,-4.991,92.5,0,109.2,13.76,-5.56,43.4
"2010-02-21 00:37:30",1699554,3.671,89.4,6.208,1.18,-1.573,97.80458,-6.292,-4.91,92.6,0,109.2,13.76,-5.56,51.4
"2010-02-21 00:38:00",1699555,4.058,84.2,4.209,0.724,-0.591,97.8037,-6.294,-4.838,92.7,0,109.2,13.76,-5.56,46.2
"2010-02-21 00:38:30",1699556,3.454,84.6,5.366,1.072,-0.996,97.80196,-6.298,-4.897,92.7,0,109.2,13.76,-5.57,46.6
"2010-02-21 00:39:00",1699557,2.814,80.6,5.212,1.179,-2.692,97.80611,-6.288,-4.928,92.6,0,109.2,13.76,-5.56,42.6
"2010-02-21 00:39:30",1699558,1.776,75.38,1.024,0.046,-5.224,97.80916,-6.28,-5.096,92.5,0,109.2,13.78,-5.55,37.4
"2010-02-21 00:40:00",1699559,3.145,83.6,6.402,1.207,-2.644,97.8111,-6.275,-4.893,92.7,0,109.2,13.76,-5.55,45.6
"2010-02-21 00:40:30",1699560,3.514,84.8,5.527,1.082,-1.3,97.81193,-6.273,-4.905,92.7,0,109.2,13.76,-5.54,46.8
"2010-02-21 00:41:00",1699561,3.825,84.6,3.033,0.89,-0.666,97.81138,-6.274,-4.861,92.8,0,109.2,13.76,-5.54,46.6
"2010-02-21 00:41:30",1699562,3.789,87.1,6.289,1.042,-1.262,97.8136,-6.269,-4.992,92.6,0,109.2,13.75,-5.54,49.1
"2010-02-21 00:42:00",1699563,2.881,79.99,4.644,1.144,-3.214,97.81387,-6.268,-5.016,92.6,0,109.2,13.75,-5.54,42.0
"2010-02-21 00:42:30",1699564,3.407,81.4,5.987,1.133,-2.654,97.81416,-6.267,-5.019,92.6,0,109.2,13.75,-5.54,43.4
"2010-02-21 00:43:00",1699565,3.847,91.1,7.28,1.066,-1.962,97.81387,-6.268,-5.013,92.7,0,109.2,13.76,-5.54,53.1
"2010-02-21 00:43:30",1699566,4.098,95.3,5.582,1.083,-0.663,97.81359,-6.269,-4.893,92.8,0,109.2,13.76,-5.54,57.3
"2010-02-21 00:44:00",1699567,4.729,99.8,4.075,0.555,-0.219,97.81243,-6.272,-4.926,92.8,0,109.2,13.76,-5.54,61.8
"2010-02-21 00:44:30",1699568,3.822,94.4,7.128,1.247,-1.791,97.80507,-6.29,-4.949,92.7,0,109.2,13.76,-5.56,56.4
"2010-02-21 00:45:00",1699569,3.468,89.9,7.771,1.08,-3.027,97.7994,-6.305,-5.013,92.7,0,109.2,13.76,-5.58,51.9
"2010-02-21 00:45:30",1699570,3.667,86.5,7.178,1.117,-3.476,97.79713,-6.311,-4.987,92.7,0,109.2,13.76,-5.58,48.5
"2010-02-21 00:46:00",1699571,4.419,90.4,6.876,1.095,-1.674,97.79457,-6.317,-4.961,92.8,0,109.2,13.76,-5.59,52.4
"2010-02-21 00:46:30",1699572,4.815,93.2,7.917,0.844,-0.624,97.79004,-6.329,-4.917,92.9,0,109.2,13.76,-5.60,55.2
"2010-02-21 00:47:00",1699573,5.059,102,5.346,0.718,0.109,97.78918,-6.331,-4.909,92.9,0,109.2,13.76,-5.60,64.0
"2010-02-21 00:47:30",1699574,4.812,94.3,7.038,1.054,-0.286,97.78635,-6.338,-4.919,92.9,0,109.2,13.76,-5.61,56.3
"2010-02-21 00:48:00",1699575,4.146,87.5,7.553,1.244,-2.959,97.78319,-6.346,-5.039,92.8,0,109.2,13.76,-5.62,49.5
"2010-02-21 00:48:30",1699576,3.935,87,5.432,1.106,-3.391,97.7832,-6.346,-5.062,92.8,0,109.2,13.76,-5.62,49.0
"2010-02-21 00:49:00",1699577,4.897,97.2,5.639,1.022,-1.763,97.78317,-6.346,-4.987,92.9,0,109.2,13.76,-5.62,59.2
"2010-02-21 00:49:30",1699578,4.5,102.7,5.989,1.013,-0.9,97.78345,-6.345,-4.995,92.9,0,109.2,13.76,-5.62,64.7
"2010-02-21 00:50:00",1699579,5.13,105.7,4.076,0.868,-0.077,97.78594,-6.339,-4.944,93,0,109.2,13.76,-5.61,67.7
"2010-02-21 00:50:30",1699580,5.394,97.3,4.08,0.679,0.009,97.7865,-6.338,-4.958,93,0,109.2,13.76,-5.61,59.3
"2010-02-21 00:51:00",1699581,4.602,97.3,6.201,0.998,-1.397,97.78706,-6.336,-5.09,92.9,0,109.2,13.76,-5.61,59.3
"2010-02-21 00:51:30",1699582,4.815,98.1,5.195,1.004,-1.757,97.78733,-6.336,-5.039,92.9,0,109.2,13.76,-5.61,60.1
"2010-02-21 00:52:00",1699583,4.253,95.8,6.719,1.215,-2.647,97.78761,-6.335,-5.099,92.9,0,109.2,13.76,-5.61,57.8
"2010-02-21 00:52:30",1699584,4.751,95.5,7.108,1.074,-1.571,97.78733,-6.336,-5.046,93,0,109.2,13.76,-5.61,57.5
"2010-02-21 00:53:00",1699585,4.935,96.5,5.657,0.686,0.073,97.78761,-6.335,-4.94,93.1,0,109.2,13.77,-5.61,58.5
"2010-02-21 00:53:30",1699586,4.8,97.9,4.664,0.717,-0.284,97.78761,-6.335,-4.997,93.1,0,109.2,13.76,-5.61,59.9
"2010-02-21 00:54:00",1699587,4.484,95.9,6.897,1.177,-2.154,97.78761,-6.335,-5.035,93.1,0,109.2,13.76,-5.61,57.9
"2010-02-21 00:54:30",1699588,4.072,95.6,6.522,1.116,-2.35,97.78761,-6.335,-5.091,93,0,109.2,13.76,-5.61,57.6
"2010-02-21 00:55:00",1699589,3.295,94.9,5.995,0.876,-3.37,97.78761,-6.335,-5.082,93.1,0,109.2,13.77,-5.61,56.9
"2010-02-21 00:55:30",1699590,4.587,105.2,7.327,0.873,-0.905,97.78761,-6.335,-5.007,93.2,0,109.2,13.77,-5.61,67.2
"2010-02-21 00:56:00",1699591,4.928,111.5,5.227,0.847,-0.39,97.78761,-6.335,-4.978,93.2,0,109.2,13.76,-5.61,73.5
"2010-02-21 00:56:30",1699592,4.911,104,6.238,0.769,-0.527,97.78761,-6.335,-4.999,93.2,0,109.2,13.76,-5.61,66.0
"2010-02-21 00:57:00",1699593,3.804,91.8,7.357,1.179,-2.017,97.78761,-6.335,-4.981,93.2,0,109.2,13.76,-5.61,53.8
"2010-02-21 00:57:30",1699594,4.621,90.3,6.118,1.051,-1.356,97.78761,-6.335,-5.079,93.1,0,109.2,13.76,-5.61,52.3
"2010-02-21 00:58:00",1699595,4.452,96.3,6.098,1.16,-2.594,97.78761,-6.335,-5.106,93.2,0,109.2,13.76,-5.61,58.3
"2010-02-21 00:58:30",1699596,5.161,104.1,5.896,0.871,-0.915,97.78761,-6.335,-4.986,93.3,0,109.2,13.76,-5.61,66.1
"2010-02-21 00:59:00",1699597,5.02,105.7,5.077,0.797,-0.279,97.78761,-6.335,-4.967,93.3,0,109.2,13.76,-5.61,67.7
"2010-02-21 00:59:30",1699598,4.823,107.9,3.722,0.743,-0.067,97.78761,-6.335,-4.973,93.4,0,109.2,13.76,-5.61,69.9
"2010-02-21 01:00:00",1699599,3.71,103.3,6.925,1.22,-1.876,97.78761,-6.335,-5.158,93.2,0,109.2,13.76,-5.61,65.3
"2010-02-21 01:00:30",1699600,3.892,101.9,5.653,1.197,-1.652,97.78761,-6.335,-5.031,93.3,0,109.2,13.76,-5.61,63.9
"2010-02-21 01:01:00",1699601,3.843,101.1,6.454,1.12,-2.476,97.78761,-6.335,-5.192,93.2,0,109.2,13.76,-5.61,63.1
"2010-02-21 01:01:30",1699602,4.435,103.6,5.31,0.846,-0.948,97.78761,-6.335,-4.989,93.4,0,109.2,13.77,-5.61,65.6
"2010-02-21 01:02:00",1699603,4.326,98.2,4.747,0.663,-0.11,97.78761,-6.335,-4.961,93.5,0,109.2,13.77,-5.61,60.2
"2010-02-21 01:02:30",1699604,4.104,92.7,4.347,0.789,0.08,97.78761,-6.335,-4.952,93.5,0,109.2,13.77,-5.61,54.7
"2010-02-21 01:03:00",1699605,3.553,88,6.977,1.024,-3.124,97.78761,-6.335,-5.212,93.2,0,109.2,13.77,-5.61,50.0
"2010-02-21 01:03:30",1699606,4.072,93.6,7.98,1.135,-2.265,97.78761,-6.335,-5.062,93.4,0,109.2,13.77,-5.61,55.6
"2010-02-21 01:04:00",1699607,2.978,92.9,6.721,0.891,-3.749,97.78761,-6.335,-5.104,93.4,0,109.2,13.77,-5.61,54.9
"2010-02-21 01:04:30",1699608,4.358,102.7,4.967,0.897,-0.718,97.78761,-6.335,-5,93.5,0,109.2,13.77,-5.61,64.7
"2010-02-21 01:05:00",1699609,4.742,99.9,3.901,0.611,-0.108,97.78761,-6.335,-4.944,93.6,0,109.2,13.77,-5.61,61.9
"2010-02-21 01:05:30",1699610,4.577,101.2,3.538,0.801,-0.21,97.78761,-6.335,-4.952,93.6,0,109.2,13.77,-5.61,63.2
"2010-02-21 01:06:00",1699611,3.485,95.5,6.296,1.166,-1.771,97.78761,-6.335,-5.007,93.6,0,109.2,13.77,-5.61,57.5
"2010-02-21 01:06:30",1699612,3.837,101.5,5.165,1.157,-2.198,97.78761,-6.335,-5.195,93.4,0,109.2,13.77,-5.61,63.5
"2010-02-21 01:07:00",1699613,3.324,98.4,5.316,1.14,-2.404,97.78761,-6.335,-5.034,93.6,0,109.2,13.77,-5.61,60.4
"2010-02-21 01:07:30",1699614,4.359,101.3,5.152,0.947,-1.168,97.78761,-6.335,-5.021,93.6,0,109.2,13.77,-5.61,63.3
"2010-02-21 01:08:00",1699615,4.639,101.9,3.698,0.55,-0.129,97.78761,-6.335,-4.974,93.6,0,109.2,13.77,-5.61,63.9
"2010-02-21 01:08:30",1699616,4.291,97.5,5.656,1.042,-0.713,97.78761,-6.335,-5.011,93.6,0,109.2,13.77,-5.61,59.5
"2010-02-21 01:09:00",1699617,3.561,93.2,6.032,1.194,-1.731,97.78761,-6.335,-4.999,93.6,0,109.2,13.77,-5.61,55.2
"2010-02-21 01:09:30",1699618,4.207,96.7,4.89,1.039,-1.126,97.78761,-6.335,-5.108,93.5,0,109.2,13.77,-5.61,58.7
"2010-02-21 01:10:00",1699619,3.775,92.6,6.927,1.175,-2.766,97.78761,-6.335,-5.136,93.5,0,109.2,13.77,-5.61,54.6
"2010-02-21 01:10:30",1699620,4.293,93.5,5.67,1.075,-1.684,97.78761,-6.335,-4.999,93.6,0,109.2,13.77,-5.61,55.5
"2010-02-21 01:11:00",1699621,4.69,94.7,4.204,0.803,-0.196,97.78761,-6.335,-4.961,93.7,0,109.2,13.77,-5.61,56.7
"2010-02-21 01:11:30",1699622,4.232,91.4,5.415,1.062,-0.465,97.78761,-6.335,-5.02,93.6,0,109.2,13.77,-5.61,53.4
"2010-02-21 01:12:00",1699623,3.966,90.8,6.412,1.178,-1.766,97.78761,-6.335,-5.063,93.7,0,109.2,13.77,-5.61,52.8
"2010-02-21 01:12:30",1699624,3.515,90,6.031,1.067,-2.782,97.78761,-6.335,-5.038,93.7,0,109.2,13.77,-5.61,52.0
"2010-02-21 01:13:00",1699625,4.397,92.9,5.502,1.044,-1.076,97.78761,-6.335,-4.996,93.7,0,109.2,13.77,-5.61,54.9
"2010-02-21 01:13:30",1699626,4.195,90,5.309,1.146,-1.747,97.78761,-6.335,-4.999,93.7,0,109.2,13.77,-5.61,52.0
"2010-02-21 01:14:00",1699627,4.518,90.6,5.539,0.909,-1.012,97.78761,-6.335,-4.983,93.8,0,109.2,13.77,-5.61,52.6
"2010-02-21 01:14:30",1699628,4.024,89.3,5.602,1.108,-1.084,97.78761,-6.335,-4.993,93.7,0,109.2,13.77,-5.61,51.3
"2010-02-21 01:15:00",1699629,4.23,88.7,5.247,1.045,-0.974,97.78761,-6.335,-5.007,93.7,0,109.2,13.77,-5.61,50.7
"2010-02-21 01:15:30",1699630,4.382,90,6.316,1.055,-1.204,97.78761,-6.335,-5.039,93.7,0,109.2,13.76,-5.61,52.0
"2010-02-21 01:16:00",1699631,4.204,89.7,4.633,1.006,-1.176,97.78761,-6.335,-4.958,93.8,0,109.1,13.77,-5.61,51.7
"2010-02-21 01:16:30",1699632,4.285,90.2,5.771,1.042,-1.415,97.78761,-6.335,-5.034,93.7,0,109.2,13.77,-5.61,52.2
"2010-02-21 01:17:00",1699633,4.335,91,5.632,1.095,-1.113,97.78761,-6.335,-4.99,93.8,0,109.2,13.77,-5.61,53.0
"2010-02-21 01:17:30",1699634,4.41,95.2,5.444,1.024,-0.807,97.78761,-6.335,-4.992,93.8,0,109.2,13.77,-5.61,57.2
"2010-02-21 01:18:00",1699635,4.116,93.3,6.357,1.156,-1.713,97.78761,-6.335,-5.055,93.8,0,109.2,13.77,-5.61,55.3
"2010-02-21 01:18:30",1699636,4.481,92.4,4.396,0.917,-1.045,97.78761,-6.335,-4.979,93.9,0,109.2,13.77,-5.61,54.4
"2010-02-21 01:19:00",1699637,4.723,95.6,5.26,1.004,-1.636,97.78761,-6.335,-4.997,93.9,0,109.2,13.77,-5.61,57.6
"2010-02-21 01:19:30",1699638,4.897,101.1,5.229,1.074,-1.42,97.78761,-6.335,-4.989,93.9,0,109.2,13.78,-5.61,63.1
"2010-02-21 01:20:00",1699639,5.511,100.9,4.835,0.491,-0.136,97.78761,-6.335,-4.946,93.9,0,109.2,13.77,-5.61,62.9
"2010-02-21 01:20:30",1699640,4.588,99.7,7.606,1.253,-1.555,97.78761,-6.335,-4.958,93.9,0,109.1,13.77,-5.61,61.7
"2010-02-21 01:21:00",1699641,5.307,102.7,3.792,0.544,-0.113,97.78789,-6.334,-4.923,93.9,0,109.2,13.77,-5.60,64.7
"2010-02-21 01:21:30",1699642,4.936,105,5.598,0.962,-0.594,97.78789,-6.334,-4.976,93.9,0,109.2,13.77,-5.60,67.0
"2010-02-21 01:22:00",1699643,4.706,103.5,5.544,1.047,-1.35,97.78789,-6.334,-4.99,93.9,0,109.1,13.77,-5.60,65.5
"2010-02-21 01:22:30",1699644,4.398,92.7,8.07,1.238,-2.342,97.78789,-6.334,-5.088,93.8,0,109.2,13.77,-5.60,54.7
"2010-02-21 01:23:00",1699645,5.384,98.3,3.964,0.577,0.008,97.78846,-6.333,-4.891,94,0,109.2,13.77,-5.60,60.3
"2010-02-21 01:23:30",1699646,4.969,99.6,5.36,0.972,-0.378,97.79044,-6.328,-4.923,94,0,109.2,13.78,-5.60,61.6
"2010-02-21 01:24:00",1699647,5.281,102.3,4.358,0.66,0.223,97.79272,-6.322,-4.906,94,0,109.2,13.77,-5.59,64.3
"2010-02-21 01:24:30",1699648,4.155,105.6,10,1.004,-1.427,97.79214,-6.323,-4.954,94,0,109.2,13.77,-5.59,67.6
"2010-02-21 01:25:00",1699649,3.953,104.8,6.693,1.13,-2.069,97.79469,-6.317,-4.964,94,0,109.2,13.77,-5.59,66.8
"2010-02-21 01:25:30",1699650,4.344,100.4,6.723,1.096,-2.438,97.79214,-6.323,-5.081,93.9,0,109.2,13.77,-5.59,62.4
"2010-02-21 01:26:00",1699651,5.383,107.4,4.685,0.847,-0.755,97.79356,-6.32,-4.906,94.1,0,109.2,13.78,-5.59,69.4
"2010-02-21 01:26:30",1699652,5.493,105.8,4.379,0.685,0.185,97.79498,-6.316,-4.921,94.1,0,109.2,13.78,-5.59,67.8
"2010-02-21 01:27:00",1699653,5.686,103.7,5.303,0.374,0.377,97.79469,-6.317,-4.906,94.1,0,109.2,13.78,-5.59,65.7
"2010-02-21 01:27:30",1699654,5.599,104.5,4.939,0.511,0.404,97.79612,-6.313,-4.883,94.2,0,109.2,13.77,-5.58,66.5
"2010-02-21 01:28:00",1699655,5.777,102,3.928,0.504,0.149,97.79583,-6.314,-4.903,94.2,0,109.2,13.77,-5.58,64.0
"2010-02-21 01:28:30",1699656,5.636,103.9,3.399,0.54,-0.003,97.79583,-6.314,-4.887,94.2,0,109.2,13.77,-5.58,65.9
"2010-02-21 01:29:00",1699657,5.793,104.3,3.924,0.299,-0.3,97.79583,-6.314,-4.896,94.2,0,109.1,13.77,-5.58,66.3
"2010-02-21 01:29:30",1699658,5.758,103.2,5.319,0.621,-0.36,97.79612,-6.313,-4.902,94.2,0,109.2,13.77,-5.58,65.2
"2010-02-21 01:30:00",1699659,5.731,102.8,3.905,0.658,-0.401,97.79612,-6.313,-4.897,94.2,0,109.2,13.77,-5.58,64.8
"2010-02-21 01:30:30",1699660,5.135,103.4,4.73,1.017,-1.351,97.79782,-6.309,-4.956,94.2,0,109.1,13.76,-5.58,65.4
"2010-02-21 01:31:00",1699661,5.551,105,5.197,0.4,-0.234,97.79838,-6.307,-4.915,94.2,0,109.2,13.76,-5.58,67.0
"2010-02-21 01:31:30",1699662,5.624,102.1,3.043,0.71,-0.707,97.79923,-6.305,-4.879,94.2,0,109.1,13.76,-5.58,64.1
"2010-02-21 01:32:00",1699663,5.999,104.2,4.543,0.662,-0.702,97.80065,-6.302,-4.898,94.3,0,109.1,13.76,-5.57,66.2
"2010-02-21 01:32:30",1699664,6.355,101.6,4.598,0.385,-0.402,97.80207,-6.298,-4.906,94.3,0,109.1,13.76,-5.57,63.6
"2010-02-21 01:33:00",1699665,6.223,93.3,4.027,0.362,-0.433,97.80293,-6.296,-4.906,94.3,0,109.2,13.76,-5.57,55.3
"2010-02-21 01:33:30",1699666,6.202,96.2,5.85,0.419,-0.457,97.80462,-6.292,-4.899,94.3,0,109.2,13.76,-5.56,58.2
"2010-02-21 01:34:00",1699667,6.218,101,4.42,0.415,-0.189,97.80405,-6.293,-4.899,94.3,0,109.2,13.77,-5.56,63.0
"2010-02-21 01:34:30",1699668,6.517,101.1,5.741,0.526,0.109,97.80321,-6.295,-4.904,94.3,0,109.2,13.77,-5.57,63.1
"2010-02-21 01:35:00",1699669,6.294,102.4,5.667,0.498,0.071,97.80264,-6.297,-4.888,94.3,0,109.2,13.77,-5.57,64.4
"2010-02-21 01:35:30",1699670,6.277,99,5.041,0.345,0.234,97.80264,-6.297,-4.874,94.4,0,109.2,13.77,-5.57,61.0
"2010-02-21 01:36:00",1699671,6.106,98.4,4.364,0.526,0.296,97.80009,-6.303,-4.903,94.4,0,109.2,13.77,-5.57,60.4
"2010-02-21 01:36:30",1699672,6.281,96.4,4.59,0.532,0.375,97.80207,-6.298,-4.89,94.4,0,109.2,13.77,-5.57,58.4
"2010-02-21 01:37:00",1699673,6.246,92.8,4.988,0.487,0.225,97.80122,-6.3,-4.89,94.4,0,109.2,13.77,-5.57,54.8
"2010-02-21 01:37:30",1699674,6.401,94,4.679,0.35,0.18,97.80009,-6.303,-4.89,94.4,0,109.2,13.77,-5.57,56.0
"2010-02-21 01:38:00",1699675,6.59,94,4.531,0.346,0.147,97.79923,-6.305,-4.895,94.4,0,109.1,13.77,-5.58,56.0
"2010-02-21 01:38:30",1699676,6.42,89.6,6.497,0.442,0.243,97.79782,-6.309,-4.908,94.4,0,109.1,13.77,-5.58,51.6
"2010-02-21 01:39:00",1699677,6.659,92.1,3.911,0.438,0.21,97.7964,-6.313,-4.913,94.4,0,109.2,13.77,-5.58,54.1
"2010-02-21 01:39:30",1699678,6.625,95,3.884,0.484,0.318,97.79612,-6.313,-4.886,94.5,0,109.1,13.77,-5.58,57.0
"2010-02-21 01:40:00",1699679,6.57,95.7,3.851,0.606,0.335,97.79442,-6.318,-4.907,94.4,0,109.1,13.77,-5.59,57.7
"2010-02-21 01:40:30",1699680,6.493,96.2,3.607,0.601,0.481,97.79129,-6.326,-4.91,94.4,0,109.2,13.77,-5.60,58.2
"2010-02-21 01:41:00",1699681,6.453,97.3,4.147,0.371,0.521,97.78874,-6.332,-4.906,94.5,0,109.2,13.77,-5.60,59.3
"2010-02-21 01:41:30",1699682,6.439,98.9,2.514,0.585,0.334,97.78818,-6.333,-4.901,94.5,0,109.1,13.77,-5.60,60.9
"2010-02-21 01:42:00",1699683,6.435,99.4,3.769,0.493,0.491,97.78761,-6.335,-4.931,94.5,0,109.1,13.77,-5.61,61.4
"2010-02-21 01:42:30",1699684,6.26,99.8,3.625,0.455,0.655,97.78761,-6.335,-4.911,94.5,0,109.2,13.77,-5.61,61.8
"2010-02-21 01:43:00",1699685,6.225,97.5,3.797,0.483,0.526,97.78761,-6.335,-4.941,94.5,0,109.2,13.77,-5.61,59.5
"2010-02-21 01:43:30",1699686,6.575,96.3,3.863,0.448,0.402,97.78761,-6.335,-4.919,94.5,0,109.1,13.77,-5.61,58.3
"2010-02-21 01:44:00",1699687,6.421,94.5,3.658,0.608,0.318,97.78761,-6.335,-4.929,94.5,0,109.2,13.77,-5.61,56.5
"2010-02-21 01:44:30",1699688,6.549,93.9,2.851,0.603,0.356,97.78761,-6.335,-4.943,94.5,0,109.2,13.77,-5.61,55.9
"2010-02-21 01:45:00",1699689,6.686,93,3.753,0.307,0.227,97.78761,-6.335,-4.95,94.5,0,109.1,13.77,-5.61,55.0
"2010-02-21 01:45:30",1699690,6.623,94.4,4.154,0.52,0.375,97.78761,-6.335,-4.924,94.6,0,109.2,13.76,-5.61,56.4
"2010-02-21 01:46:00",1699691,6.339,87.8,4.131,0.703,0.218,97.78761,-6.335,-4.942,94.6,0,109.2,13.76,-5.61,49.8